SV2BZQ-2 Thessalonik GR current weather conditions

sailwx.info

Wind from 209 at 5 knots gusting 11

Air temperature 34.4° C
Dewpoint 21.5° C

Last reported at 2015-Jul-06 12:40 UTC.
Time now 2015-Jul-06 13:28 UTC

Location: N 40°41' E 022°51'.
View on Google Maps.

See reports from other nearby stations

  
Tides and Currents Weather Stations Pressure Air Temp Water Temp Dewpoint Dewpoint Depression Visibility Wind Speed Wind Dir Waves Ship Positions
date/time (UTC)wind fromknots sea level pressurealtimeterstation pressurevisibilityair tempwater tempwave heightnotes
2015-Jul-06 12:40 209 5 gusting 11 34.4
2015-Jul-06 12:25 211 3 gusting 9 34.4
2015-Jul-06 12:08 205 2 gusting 12 34.4
2015-Jul-06 11:53 280 1 gusting 8 34.4
2015-Jul-06 11:38 281 1 gusting 7 34.4
2015-Jul-06 11:23 274 4 gusting 7 33.9
2015-Jul-06 11:08 209 4 gusting 10 33.9
2015-Jul-06 10:52 210 5 gusting 8 33.9
2015-Jul-06 10:37 211 3 gusting 9 33.3
2015-Jul-06 10:22 209 3 gusting 8 33.3
2015-Jul-06 10:07 311 2 gusting 11 32.2
2015-Jul-06 09:52 298 6 gusting 12 32.2
2015-Jul-06 09:37 298 4 gusting 7 31.7
2015-Jul-06 09:22 272 2 gusting 8 31.1
2015-Jul-06 09:07 337 1 gusting 5 30.6
2015-Jul-06 08:50 319 5 gusting 9 30.0
2015-Jul-06 08:35 324 0 gusting 6 29.4
2015-Jul-06 08:20 309 2 gusting 8 29.4
2015-Jul-06 08:05 313 5 gusting 9 28.9
2015-Jul-06 07:50 302 2 gusting 8 27.8
2015-Jul-06 07:35 347 4 gusting 9 27.8
2015-Jul-06 07:20 311 3 gusting 7 27.2
2015-Jul-06 07:03 319 2 gusting 6 26.7
2015-Jul-06 06:48 261 3 gusting 7 26.1
2015-Jul-06 06:33 281 1 gusting 6 25.6
2015-Jul-06 06:18 298 0 gusting 3 24.4
2015-Jul-06 06:03 298 23.9
2015-Jul-06 05:47 298 22.8
2015-Jul-06 05:32 298 0 gusting 3 22.2
2015-Jul-06 05:17 298 21.7
2015-Jul-06 05:02 299 21.1
2015-Jul-06 04:47 299 20.6
2015-Jul-06 04:32 300 20.0
2015-Jul-06 04:17 299 20.0
2015-Jul-06 04:02 299 20.0
2015-Jul-06 03:45 300 20.0
2015-Jul-06 03:30 300 20.0
2015-Jul-06 03:15 300 20.0
2015-Jul-06 02:45 300 20.0
2015-Jul-06 02:15 300 20.6
2015-Jul-06 02:00 301 20.6
2015-Jul-06 01:43 294 20.6
2015-Jul-06 01:28 300 20.6
2015-Jul-06 01:13 301 20.6
2015-Jul-06 00:58 302 21.1
2015-Jul-06 00:42 302 21.1
2015-Jul-06 00:27 302 21.1
2015-Jul-06 00:12 302 21.1
2015-Jul-05 23:57 303 21.1
2015-Jul-05 23:42 303 21.1
2015-Jul-05 23:27 302 21.7
2015-Jul-05 23:12 304 1 gusting 5 21.7
2015-Jul-05 22:57 276 22.2
2015-Jul-05 22:42 155 22.8
2015-Jul-05 22:25 139 23.3
2015-Jul-05 22:10 136 23.3
2015-Jul-05 21:55 136 23.9
2015-Jul-05 21:40 134 23.9
2015-Jul-05 21:25 134 24.4
2015-Jul-05 21:10 134 24.4
2015-Jul-05 20:55 134 24.4
2015-Jul-05 20:38 134 24.4
2015-Jul-05 20:23 134 24.4
2015-Jul-05 20:08 148 24.4
2015-Jul-05 19:53 166 24.4
2015-Jul-05 19:38 169 24.4
2015-Jul-05 19:22 144 24.4
2015-Jul-05 19:07 160 25.0
2015-Jul-05 18:52 182 25.6
2015-Jul-05 18:37 178 25.6
2015-Jul-05 18:22 183 26.1
2015-Jul-05 18:07 178 26.7
2015-Jul-05 17:52 182 27.2
2015-Jul-05 17:37 180 27.8
2015-Jul-05 17:22 153 27.8
2015-Jul-05 17:07 180 0 gusting 6 27.8
2015-Jul-05 16:50 167 0 gusting 7 28.3
2015-Jul-05 16:35 182 0 gusting 6 28.3
2015-Jul-05 16:20 168 0 gusting 6 28.3
2015-Jul-05 16:05 173 1 gusting 8 28.9
2015-Jul-05 15:50 176 2 gusting 8 28.9
2015-Jul-05 15:35 183 0 gusting 10 28.9
2015-Jul-05 15:20 175 0 gusting 6 28.3
2015-Jul-05 15:05 157 1 gusting 6 28.3
2015-Jul-05 14:50 166 1 gusting 6 28.9
2015-Jul-05 14:35 190 2 gusting 8 30.0
2015-Jul-05 14:18 217 2 gusting 8 31.1
2015-Jul-05 14:03 190 1 gusting 7 32.2
2015-Jul-05 13:48 178 3 gusting 7 32.8
2015-Jul-05 13:35 197 2 gusting 6 32.8
2015-Jul-05 13:17 144 1 gusting 7 32.8
2015-Jul-05 13:02 177 2 gusting 7 32.8
2015-Jul-05 12:47 161 3 gusting 8 32.2
2015-Jul-05 12:32 198 1 gusting 8 32.2
2015-Jul-05 12:17 222 2 gusting 8 32.2
2015-Jul-05 12:02 172 3 gusting 9 31.7
2015-Jul-05 11:47 182 2 gusting 8 31.7
2015-Jul-05 11:30 222 1 gusting 8 31.7
2015-Jul-05 11:15 119 3 gusting 11 31.1
2015-Jul-05 11:00 157 3 gusting 8 31.1
2015-Jul-05 10:45 181 4 gusting 10 31.1
2015-Jul-05 10:30 132 2 gusting 8 31.1
2015-Jul-05 10:15 156 4 gusting 10 31.1
2015-Jul-05 10:00 055 0 gusting 12 30.6
2015-Jul-05 09:45 301 1 gusting 11 30.0
2015-Jul-05 09:30 268 5 gusting 13 29.4
2015-Jul-05 09:13 303 3 gusting 8 30.0
2015-Jul-05 08:58 309 3 gusting 7 30.0
2015-Jul-05 08:43 271 2 gusting 6 29.4
2015-Jul-05 08:28 272 2 gusting 6 28.9
2015-Jul-05 08:13 286 0 gusting 3 28.9
2015-Jul-05 07:57 288 27.8
2015-Jul-05 07:42 299 1 gusting 6 27.2
2015-Jul-05 07:27 227 0 gusting 3 26.7
2015-Jul-05 07:12 274 0 gusting 5 26.1
2015-Jul-05 06:57 303 1 gusting 6 25.0
2015-Jul-05 06:42 321 1 gusting 5 24.4
2015-Jul-05 06:27 275 2 gusting 6 23.9
2015-Jul-05 06:10 282 0 gusting 3 23.3
2015-Jul-05 05:55 298 1 gusting 4 22.2
2015-Jul-05 05:40 296 21.7
2015-Jul-05 05:25 300 1 gusting 4 20.6
2015-Jul-05 05:10 271 1 gusting 6 20.6
2015-Jul-05 04:55 298 20.0
2015-Jul-05 04:40 291 19.4
2015-Jul-05 04:25 286 0 gusting 5 19.4
2015-Jul-05 04:08 310 19.4
2015-Jul-05 03:53 311 0 gusting 3 19.4
2015-Jul-05 03:38 317 19.4
2015-Jul-05 03:23 317 19.4
2015-Jul-05 03:08 317 19.4
2015-Jul-05 02:53 317 19.4
2015-Jul-05 02:37 317 19.4
2015-Jul-05 02:22 317 19.4
2015-Jul-05 02:07 317 20.0
2015-Jul-05 01:52 318 20.0
2015-Jul-05 01:37 318 20.0
2015-Jul-05 01:22 318 20.0
2015-Jul-05 01:07 318 20.0
2015-Jul-05 00:51 301 20.0
2015-Jul-05 00:35 302 20.0
2015-Jul-05 00:20 301 1 gusting 4 20.0
2015-Jul-05 00:05 295 20.6
2015-Jul-04 23:50 302 21.1
2015-Jul-04 23:35 302 21.1
2015-Jul-04 23:20 302 21.7
2015-Jul-04 23:05 293 21.7
2015-Jul-04 22:48 287 22.2
2015-Jul-04 22:33 284 22.8
2015-Jul-04 22:18 284 22.8
2015-Jul-04 22:03 284 22.8
2015-Jul-04 21:48 283 22.8
2015-Jul-04 21:32 283 22.8
2015-Jul-04 21:17 280 23.3
2015-Jul-04 21:02 280 23.3
2015-Jul-04 20:47 163 23.9
2015-Jul-04 20:32 162 23.9
2015-Jul-04 20:17 162 23.9
2015-Jul-04 20:02 161 24.4
2015-Jul-04 19:47 162 24.4
2015-Jul-04 19:32 182 25.0
2015-Jul-04 19:15 182 25.0
2015-Jul-04 19:00 182 25.6
2015-Jul-04 18:45 182 25.6
2015-Jul-04 18:30 182 25.6
2015-Jul-04 18:15 182 26.1
2015-Jul-04 18:00 182 26.7
2015-Jul-04 17:45 182 26.7
2015-Jul-04 17:30 184 27.2
2015-Jul-04 17:15 194 27.2
2015-Jul-04 16:58 177 27.8
2015-Jul-04 16:43 171 27.8
2015-Jul-04 16:28 173 0 gusting 5 27.8
2015-Jul-04 16:13 174 1 gusting 6 28.3
2015-Jul-04 15:58 185 0 gusting 8 28.9
2015-Jul-04 15:43 153 1 gusting 8 29.4
2015-Jul-04 15:27 146 4 gusting 8 29.4
2015-Jul-04 15:12 152 3 gusting 9 29.4
2015-Jul-04 14:57 209 3 gusting 7 30.0
2015-Jul-04 14:42 159 0 gusting 7 30.0
2015-Jul-04 14:27 159 0 gusting 8 30.6
2015-Jul-04 14:12 141 1 gusting 6 30.6
2015-Jul-04 13:57 134 1 gusting 6 30.6
2015-Jul-04 13:42 143 1 gusting 7 30.0
2015-Jul-04 13:25 148 1 gusting 8 30.0
2015-Jul-04 13:10 142 3 gusting 8 30.0